CZ-4B DEB, 29538

Orbit data source: Space-Track

CZ-4B DEB, 29538 is space debris in SSO originally from a launch on Wed, 26 Apr 2006 UTC launched from the Taiyaun Space Center, China (TSC). Debris objects in space refer to the collection of defunct objects orbiting the Earth. Examples of debris include non-operational satellites, rocket bodies, and fragments generated from explosions, collisions, or faulty payload assembly.

Loading next visibility...
Identifier
29538, 2006-015E
Orbit
SSO
Country
Flag of CNCN / PRC
Related business
Manufacturer
SAST
Mission
Spacecraft
Bus & Motor
Unknown
Mass
Unknown
Launch date (UTC)
2006-04-26 (20 years ago)
Launch vehicle
Unknown
Launch site
Taiyaun Space Center, China (TSC)
Object type
Payload
Rocket body
Debris
Shape & HBR
Unknown shape, 0.1 m
Radar Cross Section
Small (<0.1 m²)

Expand to show TLE details & history
Last TLE update: 1 day ago

TLE from 1 day ago
0 CZ-4B DEB
1 29538U 06015E   26070.30586434  .00049051  00000-0  22014-2 0  9997
2 29538  98.0562 203.3213 0046069  57.5565 303.0110 15.20049721 54111
Epoch: 2026-03-11T07:20Z
TLE epoch observation values (Epoch: 2026-03-11T07:20:26.678Z)
Latitude
-0.00014°
Longitude
-75.76184°
Altitude
491.584 km
Speed
7.629 km/s
True Right ascension
13h 33m 17s
True Declination
0° 00' 01"
Sunlit
Object was in full shadow at epoch
Visualization orbit readout
Latitude
Unknown
Longitude
Unknown
Altitude
Unknown
Speed
Unknown
Apparent Right ascension
Unknown
Apparent Declination
Unknown
Sunlit
N/A
Visualization observer readout
Local Sidereal Time
23:22:15
Azimuth
Unknown
Elevation
Unknown
Doppler factor
Unknown
Orbital elements
Apogee altitude
534.384 km
Perigee altitude
470.986 km
Semi-major axis
6,880.822 km
Eccentricity
0.00461
Inclination
98.0562°
RAAN
203.3213°
Arg. of periapsis
57.5565°
True anomaly
302.56692°
Mean anomaly
303.011°
Eccentric anomaly
302.7891°
Mean motion
3.80262 °/min
Orbital period
94.67 mins
BSTAR
0.0022014
Loading maneuver chart data...
Computing Atmospheric mass density...
Loading historical data...
Loading historical data...
Loading historical data...
Loading historical data...
Loading historical data...
Loading historical data...
Loading historical data...

Documentation

Showing up to 5 results
|